Location: Brantley
(31.5822°N, 86.2569°W)
Time: 22:54:48
(UTC+00:00)

A-11 Canister half - Pass Details

Date: 16 February 2026
Orbit: 1525 x 1683 km, 47.3° (Epoch: 10 March)

Event Time Altitude Azimuth Distance (km) Brightness Sun altitude
Rises 23:39:00 0° 266° (W) 4,712 14.1 -2.1°
Reaches altitude 10° 23:42:24 10° 274° (W) 3,713 12.6 -2.8°
Maximum altitude 23:50:56 38° 340° (NNW) 2,169 9.9 -4.6°
Drops below altitude 10° 23:59:26 10° 47° (NE) 3,695 10.5 -6.4°
Enters shadow 00:01:50 - 53° (NE) 4,389 10.8 -6.9°
